Volver al catálogo

COSMOS 970 DEB

ActivoLEO
NORAD 65013·DEBRIS·🇷🇺 Russia

Lanzado Dec 21, 1977 desde Baikonur Cosmodrome

Loading…

Próximos Pases (próximas 24 horas)

TLE

ActualizadoSource: Space-Track

Época: Sep 13, 2026, 19:44 UTC

1 65013U 77121EA  26256.82258538  .00000015  00000-0  12015-3 0  9993
2 65013  65.9211 303.6537 0104420 327.7611  31.7088 13.59148244145194

Sigue COSMOS 970 DEB en tiempo real con AllMySat

Download on the App Store